ONEWEB-0584

operational
NORAD ID: 54651 Int'l Des: 2022-166 Owner: ONEWEBN Country: UK Constellation: oneweb
LEOCIRCULARPOLARONEWEB_TYPE

About ONEWEB-0584

Description loading...

Live Position

Loading 3D Globe...

Upcoming Passes

Altitude History

Altitude vs Time

uPlot chart will show altitude changes over time

Two-Line Element Set

1 54651U 22166K 25251.87407324 .00000182 00000-0 40876-3 0 9997
2 54651 87.9219 300.1284 0002340 93.7044 266.4357 13.21823351134351
Epoch: Sep 8, 2025 • Age: 13 hours

Current Status

Altitude 1186.5 km
Velocity 7.27 km/s
Sub-Earth Point 60.13°N, 26.79°W
Launch Date Dec 8, 2022
Age 2.7 years
Type internet

Technical Details

Classification Payload
Mass 148.00 kg
Dry Mass 140.00 kg
Total Mass 148.00 kg
Length 1.30 m
Diameter 1.00 m
Span 5.00 m
Shape Trapezoid+2 pan
Manufacturer ONEWUS
Bus Type ARROW
Phase Status In Orbit
Owner/State ONEWEBN/UK

Large Constellations

Loading constellations...